Home > Weather > Des Moines > Past weeks

Flag for USA Past Weather in Des Moines, Iowa, USA — Yesterday and Last 2 Weeks

Now
92 °F

Broken clouds.


Feels Like: 109 °F
Forecast: 79 / 92 °F
Wind: 14 mph from South

Location: Des Moines International Airport

Current Time: Jul 23, 2016 at 6:12:01 PM

Latest Report: Jul 23, 2016 at 4:54 PM


Visibility: 10 mi

Pressure: 29.79 "Hg

Humidity: 66%

Dew Point: 79 °F

Location of Des MoinesLocation

Past Weather in Des Moines — Graph

°F

Des Moines Temperature Yesterday

Maximum temperature yesterday: 91 °F (at 2:54 PM)
Minimum temperature yesterday: 75 °F (at 5:54 AM)
Average temperature yesterday: 84 °F

High & Low Weather Summary for the Past Weeks

 TemperatureHumidityPressure
High96 °F (Jul 21, 2:54 PM)94% (Jul 13, 3:54 AM)30.21 "Hg (Jul 13, 3:54 AM)
Low60 °F (Jul 15, 5:54 AM)39% (Jul 14, 2:54 PM)29.60 "Hg (Jul 12, 4:54 AM)
Average79 °F74%29.95 "Hg
* Reported Jul 8 3:54 PM — Jul 23 3:54 PM, Des Moines, Weather by CustomWeather, © 2016

Note: Actual official high and low records may vary slightly from our data, if they occured in-between our weather recording intervals... More about our weather records

Advertising

Des Moines Weather History for the Previous 24 Hours

Scroll right to see more
 ConditionsComfort  
Time TempWeatherWind HumidityBarometerVisibility
3:54 PM
Sat, Jul 23
91 °FScattered clouds.12 mph70%29.79 "Hg10 mi
2:54 PM89 °FPartly sunny.8 mph72%29.81 "Hg10 mi
1:54 PM88 °FMostly cloudy.3 mph70%29.84 "Hg10 mi
12:54 PM88 °FCloudy.8 mph70%29.84 "Hg10 mi
11:54 AM88 °FBroken clouds.12 mph70%29.83 "Hg10 mi
10:54 AM90 °FBroken clouds.12 mph61%29.83 "Hg10 mi
9:54 AM86 °FBroken clouds.12 mph75%29.84 "Hg10 mi
8:54 AM83 °FCloudy.8 mph79%29.87 "Hg10 mi
7:54 AM82 °FMostly cloudy.10 mph82%29.86 "Hg10 mi
6:54 AM80 °FMostly cloudy.8 mph87%29.86 "Hg10 mi
5:54 AM79 °FMostly cloudy.5 mph90%29.88 "Hg10 mi
4:54 AM80 °FPartly cloudy.8 mph87%29.88 "Hg10 mi
3:54 AM80 °FPassing clouds.12 mph87%29.87 "Hg10 mi
2:54 AM80 °FPassing clouds.10 mph87%29.90 "Hg10 mi
1:54 AM82 °FPassing clouds.8 mph85%29.92 "Hg10 mi
12:54 AM82 °FPassing clouds.6 mph85%29.94 "Hg10 mi
11:54 PM
Fri, Jul 22
83 °FPassing clouds.6 mph82%29.92 "Hg10 mi
10:54 PM84 °FPassing clouds.7 mph83%29.92 "Hg10 mi
9:54 PM85 °FPassing clouds.9 mph80%29.92 "Hg10 mi
8:54 PM87 °FScattered clouds.8 mph75%29.90 "Hg10 mi
7:54 PM88 °FScattered clouds.7 mph73%29.92 "Hg10 mi
6:54 PM90 °FScattered clouds.8 mph66%29.92 "Hg10 mi
Weather by CustomWeather, © 2016

See weather overviewHow to use our weather pages